This demonstration page uses our WeatherBlox Daily Observations layout. Learn more.

Left ArrowRight Arrow

34.74481, -87.66753

Hourly Observations for January 6, 2020

Temp ( °F °C ) Dew Point ( °F °C ) Humidity (%) Winds ( mph kmh ) Pressure ( in mb ) Visibility ( mi km ) Precip ( " mm )
12:53 am 00:53 Clear 41 5 36 2.2 82 82 Calm 30.17 1022 10 16 0.00 0.00
1:53 am 01:53 Clear 39 3.9 35 1.7 86 86 Calm 30.18 1022 10 16 0.00 0.00
2:53 am 02:53 Clear 40 4.4 36 2.2 86 86 Calm 30.19 1022 10 16 0.00 0.00
3:53 am 03:53 Clear 38 3.3 35 1.7 89 89 Calm 30.19 1022 10 16 0.00 0.00
4:53 am 04:53 Clear 37 2.8 34 1.1 89 89 Calm 30.19 1022 10 16 0.00 0.00
5:53 am 05:53 Clear 36 2.2 34 1.1 93 93 Calm 30.20 1023 10 16 0.00 0.00
6:53 am 06:53 Clear 36 2.2 34 1.1 93 93 Calm 30.21 1023 10 16 0.00 0.00
7:53 am 07:53 Sunny 39 3.9 37 2.8 93 93 Calm 30.22 1023 10 16 0.00 0.00
8:53 am 08:53 Sunny 46 7.8 41 5 83 83 NE 5 7 30.23 1024 10 16 0.00 0.00
9:53 am 09:53 Sunny 51 10.6 39 3.9 64 64 E 9 15 30.23 1024 10 16 0.00 0.00
10:53 am 10:53 Sunny 53 11.7 40 4.4 61 61 E 9 15 30.20 1023 10 16 0.00 0.00
11:53 am 11:53 Sunny 55 12.8 40 4.4 57 57 E 6 9 30.15 1021 10 16 0.00 0.00
12:53 pm 12:53 Sunny 58 14.4 41 5 53 53 ESE 7 11 30.11 1020 10 16 0.00 0.00
1:53 pm 13:53 Sunny 59 15 42 5.6 54 54 E 6 9 30.07 1018 10 16 0.00 0.00
2:53 pm 14:53 Sunny 60 15.6 43 6.1 53 53 E 6 9 30.06 1018 10 16 0.00 0.00
3:53 pm 15:53 Sunny 61 16.1 44 6.7 54 54 ENE 6 9 30.06 1018 10 16 0.00 0.00
4:53 pm 16:53 Sunny 55 12.8 43 6.1 64 64 E 6 9 30.06 1018 10 16 0.00 0.00
5:53 pm 17:53 Clear 52 11.1 42 5.6 69 69 Calm 30.06 1018 10 16 0.00 0.00
6:53 pm 18:53 Mostly Cloudy 50 10 43 6.1 77 77 ESE 3 6 30.05 1018 10 16 0.00 0.00
7:53 pm 19:53 Cloudy 54 12.2 44 6.7 69 69 SE 3 6 30.03 1017 10 16 0.00 0.00
8:53 pm 20:53 Cloudy 55 12.8 46 7.8 72 72 SSE 7 11 30.00 1016 10 16 0.00 0.00
9:53 pm 21:53 Cloudy 57 13.9 48 8.9 72 72 S 7 11 29.98 1015 10 16 0.00 0.00
10:53 pm 22:53 Cloudy 58 14.4 49 9.4 72 72 WSW 16 26 29.98 1015 10 16 0.02 0.51
11:53 pm 23:53 Mostly Cloudy 55 12.8 50 10 83 83 SW 6 9 29.97 1015 10 16 0.00 0.00

Powered by AerisWeather